YMA7582 FBSK-FQMA

Flight info

Callsign YMA7582
Flight time 1h 0m
Altitude 35000
Route UDBUL2A UDBUL UZ10 PEDIL UQ19 AVAGO DCT JSV DCT EXOBI UT122 VMA
Aircraft B738/M-SDE2E3FGHIRWXY/LB1

Departure

Time 2026-04-25 09:14
Airport Sir Seretse Khama International Airport (FBSK)

Arrival

Time 2026-04-25 10:14
Airport Maputo Airport (FQMA)
Time Latitude Longitude Altitude Speed Heading
2026-04-25 08:44 -24.55577 25.92476 3322 ft 0 kts 152°
2026-04-25 09:05 -24.55570 25.92471 3321 ft 2 kts 151°
2026-04-25 09:06 -24.55557 25.92464 3321 ft 2 kts 152°
2026-04-25 09:06 -24.55543 25.92456 3321 ft 2 kts 151°
2026-04-25 09:06 -24.55529 25.92450 3321 ft 2 kts 186°
2026-04-25 09:06 -24.55515 25.92456 3321 ft 2 kts 217°
2026-04-25 09:07 -24.55508 25.92463 3321 ft 0 kts 238°
2026-04-25 09:07 -24.55504 25.92471 3321 ft 0 kts 242°
2026-04-25 09:09 -24.55506 25.92466 3321 ft 3 kts 242°
2026-04-25 09:09 -24.55525 25.92410 3321 ft 11 kts 270°
2026-04-25 09:09 -24.55502 25.92313 3320 ft 14 kts 254°
2026-04-25 09:09 -24.55561 25.92187 3316 ft 21 kts 242°
2026-04-25 09:10 -24.55637 25.92030 3313 ft 23 kts 241°
2026-04-25 09:10 -24.55717 25.91867 3311 ft 24 kts 242°
2026-04-25 09:10 -24.55799 25.91701 3310 ft 24 kts 242°
2026-04-25 09:10 -24.55879 25.91540 3310 ft 23 kts 242°
2026-04-25 09:11 -24.56029 25.91238 3314 ft 21 kts 242°
2026-04-25 09:11 -24.56097 25.91101 3315 ft 19 kts 241°
2026-04-25 09:11 -24.56160 25.90971 3316 ft 19 kts 242°
2026-04-25 09:12 -24.56223 25.90845 3316 ft 18 kts 241°
2026-04-25 09:12 -24.56284 25.90721 3316 ft 18 kts 245°
2026-04-25 09:12 -24.56253 25.90604 3313 ft 18 kts 333°
2026-04-25 09:12 -24.56141 25.90594 3312 ft 17 kts 57°
2026-04-25 09:13 -24.56061 25.90753 3313 ft 40 kts 61°
2026-04-25 09:13 -24.55830 25.91218 3310 ft 96 kts 62°
2026-04-25 09:13 -24.55435 25.92026 3312 ft 142 kts 60°
2026-04-25 09:13 -24.54896 25.93110 3317 ft 179 kts 60°
2026-04-25 09:14 -24.54329 25.94335 3749 ft 180 kts 61°
2026-04-25 09:14 -24.53743 25.95560 4287 ft 188 kts 60°
2026-04-25 09:14 -24.53449 25.97017 4700 ft 209 kts 96°
2026-04-25 09:14 -24.54144 25.98463 5104 ft 229 kts 135°
2026-04-25 09:15 -24.55602 25.99328 5451 ft 248 kts 158°
2026-04-25 09:15 -24.57296 25.99955 5730 ft 269 kts 158°
2026-04-25 09:15 -24.59071 26.00698 6275 ft 279 kts 155°
2026-04-25 09:15 -24.60892 26.01560 6789 ft 290 kts 153°
2026-04-25 09:16 -24.62743 26.02482 7449 ft 294 kts 154°
2026-04-25 09:16 -24.64632 26.03426 8153 ft 297 kts 154°
2026-04-25 09:16 -24.66516 26.04359 8870 ft 299 kts 155°
2026-04-25 09:16 -24.68410 26.05292 9505 ft 303 kts 156°
2026-04-25 09:17 -24.72329 26.07218 10725 ft 314 kts 156°
2026-04-25 09:17 -24.74360 26.08218 11040 ft 330 kts 156°
2026-04-25 09:17 -24.76493 26.09271 11381 ft 344 kts 156°
2026-04-25 09:18 -24.78716 26.10368 11744 ft 357 kts 156°
2026-04-25 09:18 -24.80989 26.11641 11985 ft 374 kts 148°
2026-04-25 09:18 -24.83109 26.13397 12498 ft 382 kts 140°
2026-04-25 09:18 -24.85108 26.15350 13095 ft 387 kts 138°
2026-04-25 09:19 -24.87098 26.17337 13714 ft 391 kts 139°
2026-04-25 09:19 -24.89144 26.19317 14399 ft 393 kts 140°
2026-04-25 09:19 -24.91258 26.21282 15006 ft 398 kts 141°
2026-04-25 09:19 -24.93397 26.23204 15631 ft 402 kts 142°
2026-04-25 09:20 -24.95596 26.25143 16243 ft 406 kts 142°
2026-04-25 09:20 -24.97792 26.27064 16849 ft 409 kts 142°
2026-04-25 09:20 -25.00049 26.29033 17430 ft 413 kts 142°
2026-04-25 09:20 -25.02309 26.31007 17989 ft 418 kts 142°
2026-04-25 09:21 -25.04589 26.33001 18612 ft 420 kts 143°
2026-04-25 09:21 -25.06865 26.34998 19217 ft 423 kts 143°
2026-04-25 09:21 -25.09182 26.37032 19810 ft 426 kts 143°
2026-04-25 09:21 -25.11502 26.39070 20440 ft 427 kts 143°
2026-04-25 09:22 -25.13831 26.41117 21037 ft 430 kts 143°
2026-04-25 09:22 -25.16168 26.43172 21626 ft 432 kts 143°
2026-04-25 09:22 -25.18541 26.45260 22160 ft 435 kts 143°
2026-04-25 09:22 -25.20912 26.47344 22680 ft 438 kts 144°
2026-04-25 09:23 -25.23318 26.49430 23186 ft 441 kts 144°
2026-04-25 09:23 -25.25728 26.51491 23630 ft 444 kts 145°
2026-04-25 09:23 -25.28205 26.53597 24138 ft 447 kts 145°
2026-04-25 09:23 -25.30646 26.55670 24579 ft 450 kts 145°
2026-04-25 09:24 -25.33153 26.57800 25055 ft 453 kts 145°
2026-04-25 09:24 -25.35646 26.59922 25486 ft 456 kts 146°
2026-04-25 09:24 -25.38160 26.62064 25950 ft 458 kts 146°
2026-04-25 09:24 -25.40697 26.64230 26333 ft 463 kts 146°
2026-04-25 09:25 -25.43263 26.66423 26780 ft 465 kts 146°
2026-04-25 09:25 -25.45826 26.68617 27216 ft 467 kts 146°
2026-04-25 09:25 -25.48381 26.70806 27546 ft 471 kts 146°
2026-04-25 09:25 -25.50967 26.73023 27964 ft 472 kts 146°
2026-04-25 09:26 -25.53561 26.75250 28327 ft 475 kts 146°
2026-04-25 09:26 -25.56200 26.77516 28703 ft 478 kts 146°
2026-04-25 09:26 -25.58836 26.79795 29085 ft 480 kts 144°
2026-04-25 09:26 -25.61307 26.82293 29385 ft 487 kts 137°
2026-04-25 09:27 -25.63462 26.85213 29832 ft 490 kts 128°
2026-04-25 09:27 -25.65173 26.88425 30331 ft 492 kts 119°
2026-04-25 09:27 -25.66498 26.91928 30762 ft 494 kts 112°
2026-04-25 09:27 -25.67491 26.95553 31114 ft 497 kts 107°
2026-04-25 09:28 -25.68168 26.99332 31503 ft 499 kts 101°
2026-04-25 09:28 -25.68560 27.03126 31871 ft 501 kts 97°
2026-04-25 09:28 -25.68815 27.07001 32165 ft 503 kts 96°
2026-04-25 09:28 -25.69023 27.10829 32471 ft 504 kts 96°
2026-04-25 09:29 -25.69265 27.14721 32750 ft 504 kts 98°
2026-04-25 09:29 -25.69589 27.18579 33096 ft 504 kts 99°
2026-04-25 09:29 -25.69965 27.22412 33504 ft 502 kts 99°
2026-04-25 09:29 -25.70365 27.26242 33921 ft 500 kts 100°
2026-04-25 09:30 -25.70766 27.30037 34333 ft 498 kts 100°
2026-04-25 09:30 -25.71163 27.33831 34726 ft 497 kts 100°
2026-04-25 09:30 -25.71552 27.37619 35088 ft 496 kts 100°
2026-04-25 09:30 -25.71931 27.41402 35305 ft 497 kts 100°
2026-04-25 09:31 -25.72309 27.45215 35310 ft 499 kts 100°
2026-04-25 09:31 -25.73046 27.52876 35310 ft 496 kts 100°
2026-04-25 09:32 -25.73765 27.60504 35319 ft 497 kts 100°
2026-04-25 09:32 -25.74471 27.68079 35326 ft 496 kts 99°
2026-04-25 09:33 -25.75174 27.75684 35332 ft 497 kts 99°
2026-04-25 09:33 -25.75876 27.83305 35336 ft 497 kts 99°
2026-04-25 09:34 -25.76572 27.90883 35334 ft 497 kts 99°
2026-04-25 09:34 -25.77267 27.98492 35334 ft 498 kts 99°
2026-04-25 09:35 -25.77959 28.06129 35329 ft 496 kts 99°
2026-04-25 09:35 -25.78642 28.13705 35329 ft 498 kts 99°
2026-04-25 09:36 -25.79327 28.21358 35327 ft 498 kts 99°
2026-04-25 09:36 -25.80002 28.28938 35328 ft 496 kts 99°
2026-04-25 09:37 -25.80674 28.36521 35332 ft 497 kts 98°
2026-04-25 09:37 -25.81345 28.44145 35331 ft 496 kts 98°
2026-04-25 09:38 -25.82009 28.51736 35327 ft 497 kts 98°
2026-04-25 09:38 -25.82674 28.59391 35327 ft 497 kts 98°
2026-04-25 09:39 -25.83335 28.67028 35326 ft 496 kts 98°
2026-04-25 09:39 -25.83945 28.74142 35325 ft 495 kts 98°
2026-04-25 09:40 -25.84915 28.85524 35328 ft 497 kts 98°
2026-04-25 09:40 -25.85564 28.93189 35329 ft 497 kts 98°
2026-04-25 09:41 -25.86203 29.00789 35328 ft 496 kts 97°
2026-04-25 09:41 -25.86840 29.08408 35329 ft 496 kts 97°
2026-04-25 09:42 -25.87473 29.16030 35330 ft 496 kts 97°
2026-04-25 09:42 -25.88101 29.23635 35332 ft 496 kts 97°
2026-04-25 09:43 -25.88726 29.31276 35339 ft 496 kts 97°
2026-04-25 09:43 -25.89344 29.38863 35339 ft 497 kts 97°
2026-04-25 09:44 -25.89961 29.46490 35340 ft 496 kts 97°
2026-04-25 09:44 -25.90574 29.54119 35345 ft 496 kts 97°
2026-04-25 09:45 -25.91178 29.61699 35346 ft 495 kts 97°
2026-04-25 09:45 -25.91782 29.69300 35348 ft 495 kts 96°
2026-04-25 09:46 -25.92381 29.76916 35350 ft 496 kts 96°
2026-04-25 09:46 -25.92974 29.84519 35349 ft 495 kts 96°
2026-04-25 09:47 -25.93566 29.92129 35352 ft 496 kts 96°
2026-04-25 09:47 -25.94154 29.99745 35354 ft 495 kts 96°
2026-04-25 09:48 -25.94736 30.07332 35350 ft 496 kts 96°
2026-04-25 09:48 -25.95314 30.14926 35347 ft 497 kts 96°
2026-04-25 09:49 -25.95891 30.22537 35344 ft 496 kts 96°
2026-04-25 09:49 -25.96463 30.30149 35340 ft 495 kts 96°
2026-04-25 09:50 -25.97033 30.37794 35324 ft 497 kts 96°
2026-04-25 09:50 -25.97596 30.45399 35312 ft 495 kts 96°
2026-04-25 09:51 -25.98153 30.52990 34967 ft 494 kts 96°
2026-04-25 09:51 -25.98429 30.56767 34412 ft 492 kts 96°
2026-04-25 09:51 -25.98678 30.60534 33714 ft 492 kts 93°
2026-04-25 09:52 -25.98731 30.64370 32942 ft 494 kts 89°
2026-04-25 09:52 -25.98622 30.68148 32238 ft 497 kts 87°
2026-04-25 09:52 -25.98420 30.71997 31468 ft 500 kts 85°
2026-04-25 09:52 -25.98181 30.75831 30922 ft 497 kts 85°
2026-04-25 09:53 -25.97936 30.79643 30359 ft 494 kts 85°
2026-04-25 09:53 -25.97699 30.83427 29793 ft 492 kts 85°
2026-04-25 09:53 -25.97477 30.87181 29193 ft 489 kts 86°
2026-04-25 09:53 -25.97267 30.90906 28580 ft 483 kts 86°
2026-04-25 09:54 -25.97068 30.94626 28014 ft 475 kts 86°
2026-04-25 09:54 -25.96880 30.98238 27468 ft 467 kts 86°
2026-04-25 09:54 -25.96698 31.01813 26913 ft 460 kts 86°
2026-04-25 09:54 -25.96523 31.05297 26369 ft 453 kts 86°
2026-04-25 09:55 -25.96349 31.08752 25835 ft 445 kts 86°
2026-04-25 09:55 -25.96178 31.12158 25300 ft 439 kts 86°
2026-04-25 09:55 -25.96008 31.15513 24773 ft 435 kts 86°
2026-04-25 09:55 -25.95838 31.18833 24244 ft 432 kts 86°
2026-04-25 09:56 -25.95669 31.22126 23704 ft 429 kts 86°
2026-04-25 09:56 -25.95499 31.25429 23180 ft 426 kts 86°
2026-04-25 09:56 -25.95331 31.28696 22645 ft 423 kts 86°
2026-04-25 09:56 -25.95163 31.31945 22116 ft 420 kts 86°
2026-04-25 09:57 -25.94998 31.35135 21597 ft 417 kts 86°
2026-04-25 09:57 -25.94830 31.38349 21070 ft 414 kts 86°
2026-04-25 09:57 -25.94664 31.41533 20548 ft 412 kts 86°
2026-04-25 09:57 -25.94499 31.44671 20021 ft 409 kts 86°
2026-04-25 09:58 -25.94334 31.47810 19477 ft 407 kts 86°
2026-04-25 09:58 -25.94169 31.50936 18946 ft 405 kts 86°
2026-04-25 09:58 -25.94003 31.54056 18416 ft 402 kts 86°
2026-04-25 09:58 -25.93839 31.57115 17900 ft 399 kts 86°
2026-04-25 09:59 -25.93675 31.60186 17372 ft 397 kts 86°
2026-04-25 09:59 -25.93512 31.63195 16859 ft 395 kts 86°
2026-04-25 09:59 -25.93348 31.66233 16335 ft 392 kts 85°
2026-04-25 09:59 -25.93185 31.69234 15815 ft 390 kts 85°
2026-04-25 10:00 -25.93021 31.72249 15296 ft 387 kts 85°
2026-04-25 10:00 -25.92859 31.75216 14772 ft 385 kts 85°
2026-04-25 10:00 -25.92697 31.78151 14261 ft 382 kts 85°
2026-04-25 10:00 -25.92535 31.81083 13764 ft 379 kts 85°
2026-04-25 10:01 -25.92376 31.83959 13267 ft 376 kts 85°
2026-04-25 10:01 -25.92217 31.86838 12767 ft 373 kts 85°
2026-04-25 10:01 -25.92059 31.89686 12272 ft 365 kts 85°
2026-04-25 10:01 -25.91981 31.92480 11768 ft 359 kts 91°
2026-04-25 10:02 -25.92360 31.95164 11313 ft 355 kts 109°
2026-04-25 10:02 -25.93588 31.97509 11156 ft 350 kts 133°
2026-04-25 10:02 -25.95476 31.99243 11150 ft 355 kts 149°
2026-04-25 10:02 -25.97591 32.00660 10847 ft 354 kts 151°
2026-04-25 10:03 -25.99682 32.02036 10587 ft 344 kts 151°
2026-04-25 10:03 -26.01677 32.03357 10460 ft 329 kts 150°
2026-04-25 10:03 -26.03617 32.04650 10343 ft 316 kts 150°
2026-04-25 10:03 -26.05467 32.05887 10195 ft 304 kts 150°
2026-04-25 10:04 -26.07253 32.07084 9849 ft 301 kts 150°
2026-04-25 10:04 -26.09031 32.08275 9457 ft 294 kts 150°
2026-04-25 10:04 -26.10753 32.09489 9075 ft 287 kts 144°
2026-04-25 10:04 -26.12170 32.11006 8727 ft 282 kts 123°
2026-04-25 10:05 -26.12906 32.13023 8435 ft 287 kts 102°
2026-04-25 10:05 -26.13247 32.15214 8041 ft 290 kts 97°
2026-04-25 10:05 -26.13528 32.17427 7701 ft 286 kts 97°
2026-04-25 10:05 -26.13823 32.19597 7361 ft 283 kts 98°
2026-04-25 10:06 -26.14142 32.21735 7020 ft 279 kts 99°
2026-04-25 10:06 -26.14471 32.23829 6695 ft 276 kts 99°
2026-04-25 10:06 -26.14808 32.25926 6364 ft 273 kts 100°
2026-04-25 10:06 -26.15141 32.27994 6043 ft 270 kts 100°
2026-04-25 10:07 -26.15466 32.30017 5727 ft 267 kts 99°
2026-04-25 10:07 -26.15791 32.32055 5415 ft 268 kts 99°
2026-04-25 10:07 -26.16121 32.34121 5078 ft 272 kts 99°
2026-04-25 10:07 -26.16448 32.36172 4830 ft 266 kts 99°
2026-04-25 10:08 -26.16764 32.38155 4753 ft 252 kts 99°
2026-04-25 10:08 -26.16940 32.40036 4685 ft 241 kts 87°
2026-04-25 10:08 -26.16556 32.41821 4570 ft 237 kts 56°
2026-04-25 10:08 -26.15417 32.43081 4306 ft 230 kts 28°
2026-04-25 10:09 -26.14017 32.43896 4035 ft 226 kts 25°
2026-04-25 10:09 -26.12620 32.44697 3788 ft 222 kts 26°
2026-04-25 10:09 -26.11279 32.45506 3530 ft 216 kts 27°
2026-04-25 10:09 -26.09985 32.46296 3281 ft 211 kts 27°
2026-04-25 10:10 -26.08712 32.47074 3084 ft 203 kts 27°
2026-04-25 10:10 -26.07506 32.47809 2948 ft 194 kts 27°
2026-04-25 10:10 -26.06347 32.48515 2814 ft 183 kts 26°
2026-04-25 10:10 -26.05228 32.49198 2673 ft 182 kts 27°
2026-04-25 10:11 -26.04124 32.49872 2526 ft 182 kts 26°
2026-04-25 10:11 -26.03008 32.50552 2334 ft 181 kts 27°
2026-04-25 10:11 -26.01901 32.51228 2155 ft 179 kts 27°
2026-04-25 10:11 -26.00806 32.51898 1997 ft 178 kts 27°
2026-04-25 10:12 -25.99716 32.52564 1822 ft 179 kts 27°
2026-04-25 10:12 -25.98624 32.53230 1564 ft 178 kts 27°
2026-04-25 10:12 -25.96571 32.54486 1101 ft 153 kts 28°
2026-04-25 10:13 -25.95648 32.55051 878 ft 152 kts 28°
2026-04-25 10:13 -25.94734 32.55610 639 ft 150 kts 28°
2026-04-25 10:13 -25.93825 32.56193 434 ft 149 kts 28°
2026-04-25 10:13 -25.92917 32.56743 274 ft 148 kts 28°
2026-04-25 10:14 -25.92028 32.57285 136 ft 137 kts 28°
2026-04-25 10:14 -25.91329 32.57716 137 ft 91 kts 28°
2026-04-25 10:14 -25.90909 32.57979 143 ft 48 kts 31°
2026-04-25 10:14 -25.90694 32.58107 144 ft 30 kts 27°
2026-04-25 10:15 -25.90479 32.58233 145 ft 38 kts 28°
2026-04-25 10:15 -25.90375 32.58376 146 ft 19 kts 112°
2026-04-25 10:15 -25.90453 32.58453 148 ft 14 kts 188°
2026-04-25 10:15 -25.90548 32.58405 146 ft 15 kts 208°
2026-04-25 10:16 -25.90642 32.58348 145 ft 15 kts 209°
2026-04-25 10:16 -25.90735 32.58292 145 ft 15 kts 209°
2026-04-25 10:16 -25.90832 32.58230 144 ft 17 kts 210°
2026-04-25 10:16 -25.90947 32.58161 143 ft 19 kts 209°
2026-04-25 10:17 -25.91064 32.58089 142 ft 19 kts 210°
2026-04-25 10:17 -25.91178 32.58019 142 ft 18 kts 209°
2026-04-25 10:17 -25.91298 32.57947 139 ft 20 kts 209°
2026-04-25 10:17 -25.91433 32.57863 137 ft 23 kts 209°
2026-04-25 10:18 -25.91581 32.57774 134 ft 24 kts 209°
2026-04-25 10:18 -25.91729 32.57682 132 ft 24 kts 209°
2026-04-25 10:18 -25.91874 32.57592 132 ft 23 kts 210°
2026-04-25 10:18 -25.92013 32.57508 134 ft 22 kts 206°
2026-04-25 10:19 -25.92128 32.57450 136 ft 7 kts 200°
2026-04-25 10:19 -25.92148 32.57442 136 ft 1 kts 199°
2026-04-25 10:19 -25.92154 32.57439 137 ft 3 kts 209°
2026-04-25 10:19 -25.92200 32.57407 138 ft 11 kts 212°
2026-04-25 10:20 -25.92277 32.57371 140 ft 10 kts 152°
2026-04-25 10:20 -25.92306 32.57411 140 ft 0 kts 120°